Weather History for KTWF - December, 2012

Change the Weather History Date:

Friday, December 7, 2012

  Actual Average Record
Temperature  
Mean Temperature 38 °F -  
Max Temperature 44 °F 39 °F 61 °F (1987)
Min Temperature 31 °F 20 °F 0 °F (2005)
Degree Days  
Heating Degree Days 27 36  
Month to date heating degree days 146 245  
Since 1 July heating degree days 1200 1683  
Cooling Degree Days 0 0  
Month to date cooling degree days 0 0  
Year to date cooling degree days 970 680  
Moisture  
Dew Point 25 °F    
Average Humidity 59    
Maximum Humidity 75    
Minimum Humidity 43    
Precipitation  
Precipitation 0.00 in 0.04 in 0.33 in (2003)
Month to date precipitation 1.41 0.27  
Year to date precipitation 9.75 9.70  
Sea Level Pressure  
Sea Level Pressure 30.04 in    
Wind  
Wind Speed 9 mph (SW)    
Max Wind Speed 15 mph    
Max Gust Speed 20 mph    
Visibility 10 miles    
Events Snow    
T = Trace of Precipitation, MM = Missing Value Source: NWS Daily Summary

Daily Weather History Graph

Daily Weather History Graph

Search for Another Location

Airport or City:

Trip Planner

Search our weather history database for the weather conditions in past years. The results will help you decide how hot, cold, wet, or windy it might be!

Date:

Astronomy

Dec. 07, 2012 Rise Set
Actual Time 7:54 AM MST 5:04 PM MST
Civil Twilight 7:22 AM MST 5:36 PM MST
Nautical Twilight 6:47 AM MST 6:11 PM MST
Astronomical Twilight 6:13 AM MST 6:46 PM MST
Moon 1:11 AM MST (12/7) 1:10 PM MST (12/7)
Length of Visible Light 10h 13m
Length of Day
9h 10m
Last Quarter, 38% of the Moon is Illuminated
Dec 7
Last Quarter
Dec 13
New
Dec 19
First Quarter
Dec 28
Full
Jan 4
Last Quarter

Hourly Weather History & Observations

Time (MST) Temp. Windchill Dew Point Humidity Pressure Visibility Wind Dir Wind Speed Gust Speed Precip Events Conditions
12:53 AM 34.0 °F 25.0 °F 27.0 °F 75% 30.06 in 9.0 mi SSW 12.7 mph - 0.00 in Snow Light Snow
1:53 AM 34.0 °F 24.6 °F 26.1 °F 73% 30.08 in 9.0 mi SW 13.8 mph - 0.00 in Snow Light Snow
2:53 AM 34.0 °F 25.0 °F 26.1 °F 73% 30.09 in 9.0 mi SW 12.7 mph - 0.00 in Snow Light Snow
3:53 AM 33.1 °F 25.5 °F 25.0 °F 72% 30.09 in 10.0 mi SW 9.2 mph - 0.00 in   Clear
4:53 AM 33.1 °F 23.9 °F 24.1 °F 70% 30.08 in 9.0 mi SSW 12.7 mph - 0.00 in Snow Light Snow
5:53 AM 32.0 °F 23.0 °F 24.1 °F 73% 30.09 in 9.0 mi SSW 11.5 mph - 0.00 in Snow Light Snow
6:53 AM 30.9 °F 22.8 °F 23.0 °F 72% 30.11 in 10.0 mi SSW 9.2 mph - 0.00 in   Clear
7:53 AM 30.9 °F 22.2 °F 21.9 °F 69% 30.12 in 9.0 mi SSW 10.4 mph - N/A   Clear
8:53 AM 33.1 °F 25.5 °F 23.0 °F 66% 30.12 in 10.0 mi SW 9.2 mph - N/A   Clear
9:53 AM 35.1 °F 28.6 °F 25.0 °F 67% 30.12 in 10.0 mi SSW 8.1 mph - N/A   Overcast
10:53 AM 37.9 °F 30.5 °F 24.1 °F 57% 30.11 in 10.0 mi SW 11.5 mph - N/A   Mostly Cloudy
11:53 AM 39.9 °F 32.9 °F 24.1 °F 53% 30.08 in 10.0 mi WSW 11.5 mph - N/A   Clear
12:53 PM 42.1 °F 36.1 °F 21.9 °F 45% 30.06 in 10.0 mi SW 10.4 mph - N/A   Clear
1:53 PM 42.1 °F 35.7 °F 24.1 °F 49% 30.02 in 10.0 mi WSW 11.5 mph - N/A   Clear
2:53 PM 43.0 °F 36.8 °F 24.1 °F 47% 30.00 in 10.0 mi West 11.5 mph - N/A   Clear
3:53 PM 42.1 °F 37.7 °F 24.1 °F 49% 29.99 in 10.0 mi West 6.9 mph - N/A   Clear
4:53 PM 39.0 °F - 25.0 °F 57% 30.00 in 10.0 mi Calm Calm - N/A   Clear
5:53 PM 33.1 °F - 26.1 °F 75% 30.00 in 10.0 mi Calm Calm - N/A   Scattered Clouds
6:53 PM 35.1 °F 29.3 °F 26.1 °F 70% 29.99 in 10.0 mi South 6.9 mph - N/A   Overcast
7:53 PM 36.0 °F 31.1 °F 26.1 °F 67% 29.97 in 10.0 mi SSW 5.8 mph - N/A   Mostly Cloudy
8:53 PM 34.0 °F 26.6 °F 26.1 °F 73% 29.95 in 10.0 mi South 9.2 mph - N/A   Scattered Clouds
9:53 PM 36.0 °F 29.6 °F 27.0 °F 70% 29.94 in 10.0 mi SSW 8.1 mph - N/A   Clear
10:53 PM 36.0 °F 29.6 °F 26.1 °F 67% 29.94 in 10.0 mi WSW 8.1 mph - N/A   Mostly Cloudy
11:53 PM 37.0 °F 28.9 °F 25.0 °F 62% 29.93 in 10.0 mi SW 12.7 mph - N/A   Overcast